[[{"header":{"parameterUnit":"m.s-1","parameterCategory":1,"la1":30.2991,"la2":30.254,"lo1":-89.0895,"lo2":-89.0444,"dy":0.0017,"dx":0.0017,"nx":28,"ny":28,"refTime":"2023-11-14T09:00:00:Z","depth":0,"parameterNumber":2,"parameterNumberName":"U-component_of_WINDS"},"data":[0,0,0,0,0,0,0,0,0,0,0,0,0,0,0,0,0,0,0,0,0,0,0,0,0,0,0,0,0,0,0,0,0,0,0,0,0,0,0,0,0,0,0,0,0,0,0,0,0,0,0,0,0,0,0,0,0,0,-6.8413,-6.8414,0,-6.8553,-6.8555,-6.8556,-6.8459,-6.8455,-6.8451,-6.8447,-6.8589,-6.8596,-6.8604,0,0,0,0,0,0,0,0,0,0,0,0,0,-6.8058,-6.8065,-6.8412,-6.8414,-6.8416,-6.8553,-6.8555,-6.8557,-6.846,-6.8455,-6.845,-6.8445,-6.8586,-6.8595,-6.8605,0,0,0,0,0,0,0,0,0,0,0,0,0,-6.8207,-6.8068,-6.8412,-6.8384,-6.8383,-6.8552,-6.8555,-6.8557,-6.8461,-6.8455,-6.8448,-6.8442,-6.8583,-6.8594,-6.8606,-6.881,0,0,-6.8642,-6.8647,0,0,0,0,0,0,0,0,-6.8199,-6.822,-6.8387,-6.8387,-6.8386,-6.8482,-6.8482,-6.8642,-6.8463,-6.8432,-6.8447,-6.8439,-6.8558,-6.8572,-6.8612,-6.8816,-6.8822,-6.8643,-6.865,-6.8655,-6.8659,0,0,0,0,0,0,0,-6.8188,-6.8213,-6.8468,-6.8389,-6.8389,-6.8364,-6.8378,-6.8512,-6.853,-6.8434,-6.8427,-6.8445,-6.8557,-6.8601,-6.8615,-6.8824,-6.8643,-6.8653,-6.866,-6.8665,-6.9201,-6.9208,0,0,0,0,0,0,-6.8181,-6.8205,-6.8463,-6.8472,-6.8274,-6.8376,-6.8391,-6.8458,-6.8528,-6.8533,-6.8451,-6.844,-6.8584,-6.8601,-6.862,-6.8861,-6.8655,-6.8666,-6.8673,-6.9194,-6.9202,-6.921,0,0,0,0,0,0,-6.8174,-6.8205,-6.8458,-6.8337,-6.8367,-6.8389,-6.8464,-6.8464,-6.8508,-6.8541,-6.8543,-6.8493,-6.858,-6.8603,-6.8763,-6.8865,-6.8672,-6.8682,-6.9185,-6.9196,-6.9206,-6.9347,0,0,0,0,0,0,-6.8164,-6.8203,-6.8281,-6.834,-6.8374,-6.86,-6.8471,-6.8471,-6.8529,-6.8517,-6.8581,-6.8586,-6.8577,-6.8746,-6.8775,-6.8877,-6.8691,-6.9176,-6.919,-6.9203,-6.9333,-6.9361,-6.9385,0,0,0,0,0,-6.8152,-6.8315,-6.8285,-6.8317,-6.8472,-6.8606,-6.8625,-6.8612,-6.8538,-6.8616,-6.8637,-6.8584,-6.885,-6.8763,-6.8795,-6.8902,-6.917,-6.9186,-6.9202,-6.9321,-6.9355,-6.9384,0,0,0,0,0,0,-6.8266,-6.8322,-6.829,-6.8477,-6.8538,-6.8589,-6.8687,-6.8649,-6.8731,-6.8716,-6.8696,-6.8711,-6.8878,-6.8907,-6.8809,-6.9102,-6.8997,-6.9021,-6.9078,-6.911,-6.9136,-6.9124,-6.8701,0,0,0,0,0,-6.8314,-6.8418,-6.8461,-6.8621,-6.8654,-6.8666,-6.8723,-6.8708,-6.8769,-6.8794,-6.8827,-6.8888,-6.8985,-6.905,-6.9141,-6.9337,-6.9349,-6.9427,-6.9453,-6.9474,-6.9493,-6.9598,-6.9632,-6.9263,-6.9263,-6.9263,0,0,-6.8412,-6.8455,-6.8522,-6.8646,-6.8691,-6.8798,-6.8688,-6.8806,-6.8886,-6.8812,-6.8964,-6.8991,-6.9058,-6.9237,-6.9317,-6.9265,-6.9598,-6.9494,-6.9511,-6.9519,-6.9618,-6.9653,-6.9684,-6.9274,-6.9272,-6.927,0,0,-6.8645,-6.869,-6.8828,-6.8875,-6.8945,-6.8952,-6.8986,-6.9044,-6.9059,-6.9212,-6.9158,-6.9252,-6.9421,-6.947,-6.9517,-6.977,-6.9724,-6.9801,-6.9935,-7.0037,-7.0066,-7.0092,-7.018,-7.0212,-6.9821,-6.9821,-6.9821,0,-6.8758,-6.8919,-6.8903,-6.9026,-6.9081,-6.9021,-6.916,-6.9207,-6.9303,-6.9342,-6.9284,-6.9493,-6.9534,-6.9722,-6.9784,-6.9825,-6.9861,-6.9792,-7.0063,-7.0089,-7.0113,-7.0196,-7.023,-6.983,-6.9829,-6.9828,-6.9827,0,-6.9053,-6.9166,-6.9269,-6.9364,-6.9431,-6.9562,-6.9565,-6.9635,-6.9614,-6.9627,-6.9783,-6.983,-6.9929,-6.9974,-6.9955,-7.016,-7.0125,-7.0066,-6.9959,-7.0157,-7.0235,-7.0267,-6.9842,-6.9839,-6.9837,-6.9834,0,0,-6.9361,-6.9447,-6.9485,-6.9526,-6.96,-6.9686,-6.9813,-6.9911,-6.997,-7.0039,-7.0144,-7.0288,-7.0233,-7.0287,-7.0273,-7.0363,-7.0558,-7.0292,-7.0293,-7.0338,-7.0785,-7.0827,-7.0865,-7.0529,-7.0535,-7.054,-7.0778,0,-6.9597,-6.982,-6.981,-7.0018,-7.012,-7.0065,-7.0176,-7.0232,-7.0248,-7.0337,-7.0354,-7.0456,-7.0377,-7.0409,-7.0495,-7.0516,-7.0647,-7.0499,-7.0625,-7.0629,-7.0607,-7.0906,-7.0951,-7.1174,-7.0809,-7.0814,-7.0818,0,-6.9902,-6.9981,-7.02,-7.0257,-7.0299,-7.0399,-7.0487,-7.0574,-7.0636,-7.0641,-7.0702,-7.0674,-7.0801,-7.0694,-7.0869,-7.0768,-7.082,-7.0838,-7.0846,-7.0855,-7.0734,-7.092,-7.1245,-7.1277,-7.0867,-7.0863,-7.0859,0,-7.0102,-7.0264,-7.0414,-7.0452,-7.0524,-7.0595,-7.0628,-7.0684,-7.0743,-7.082,-7.0858,-7.095,-7.0999,-7.107,-7.1066,-7.0989,-7.1243,-7.1136,-7.1249,-7.1249,-7.1303,-7.1299,-7.1637,-7.1341,-7.134,-7.134,-7.1339,0,-7.0365,-7.05,-7.0505,-7.0598,-7.0747,-7.0735,-7.0883,-7.0908,-7.0959,-7.1054,-7.1013,-7.1103,-7.1094,-7.1186,-7.1184,-7.1328,-7.1351,-7.1358,-7.1355,-7.136,-7.1359,-7.139,-7.1374,-7.1349,-7.1347,-7.1345,-7.1343,0,-7.0612,-7.0621,-7.0782,-7.0837,-7.0854,-7.0961,-7.1007,-7.1094,-7.1107,-7.1229,-7.1257,-7.1277,-7.1382,-7.1386,-7.1507,-7.1506,-7.168,-7.1662,-7.1659,-7.1654,-7.1766,-7.1754,-7.2134,-7.2182,-7.1858,-7.1861,-7.1864,0,-7.0777,-7.088,-7.0946,-7.1007,-7.1045,-7.1145,-7.1205,-7.1197,-7.1261,-7.134,-7.1417,-7.1519,-7.1599,-7.177,-7.1794,-7.1886,-7.1867,-7.1995,-7.1881,-7.1882,-7.1866,-7.1858,-7.1867,-7.2015,-7.2019,-7.2022,-7.2024,0,-7.107,-7.1069,-7.1158,-7.1249,-7.1322,-7.1393,-7.1459,-7.1512,-7.1511,-7.1585,-7.1692,-7.1755,-7.1878,-7.1979,-7.2068,-7.2101,-7.2062,-7.2061,-7.2091,-7.2095,-7.2088,-7.209,-7.1716,-7.2051,-7.2048,-7.2046,-7.2045,-7.2044,-7.1279,-7.1367,-7.1427,-7.1527,-7.1576,-7.1639,-7.1723,-7.1747,-7.1836,-7.1936,-7.1926,-7.2045,-7.2104,-7.222,-7.2261,-7.2352,-7.2308,-7.2353,-7.2364,-7.2374,-7.2385,-7.2077,-7.2369,-7.2368,-7.2368,-7.2367,-7.2366,0,-7.1566,-7.1603,-7.1695,-7.1788,-7.1867,-7.1826,-7.1897,-7.1964,-7.2069,-7.2129,-7.2209,-7.2331,-7.2428,-7.2461,-7.2555,-7.2622,-7.2607,-7.2647,-7.264,-7.2648,-7.242,-7.2383,-7.2658,-7.2658,-7.2658,-7.2658,-7.2658,-7.2658,-7.1725,-7.1871,-7.1878,-7.2047,-7.2082,-7.2198,-7.2242,-7.2299,-7.2346,-7.2484,-7.2565,-7.2587,-7.2635,-7.2732,-7.2819,-7.2826,-7.2861,-7.2908,-7.2907,-7.2694,-7.2664,-7.2636,-7.2601,-7.2917,-7.2917,-7.3127,-7.3129,-7.313]},{"header":{"parameterUnit":"m.s-1","parameterCategory":1,"la1":30.2991,"la2":30.254,"lo1":-89.0895,"lo2":-89.0444,"dy":0.0017,"dx":0.0017,"nx":28,"ny":28,"refTime":"2023-11-14T09:00:00:Z","depth":0,"parameterNumber":3,"parameterNumberName":"V-component_of_WINDS"},"data":[0,0,0,0,0,0,0,0,0,0,0,0,0,0,0,0,0,0,0,0,0,0,0,0,0,0,0,0,0,0,0,0,0,0,0,0,0,0,0,0,0,0,0,0,0,0,0,0,0,0,0,0,0,0,0,0,0,0,-3.8747,-3.8747,0,-3.8707,-3.8706,-3.8706,-3.8692,-3.8692,-3.8692,-3.8692,-3.8648,-3.8646,-3.8645,0,0,0,0,0,0,0,0,0,0,0,0,0,-3.8807,-3.8806,-3.8747,-3.8747,-3.8746,-3.8707,-3.8706,-3.8706,-3.8692,-3.8692,-3.8692,-3.8692,-3.8648,-3.8646,-3.8645,0,0,0,0,0,0,0,0,0,0,0,0,0,-3.8775,-3.8805,-3.8747,-3.8735,-3.8733,-3.8707,-3.8706,-3.8706,-3.8692,-3.8692,-3.8692,-3.8693,-3.8649,-3.8647,-3.8645,-3.8627,0,0,-3.8638,-3.8638,0,0,0,0,0,0,0,0,-3.8777,-3.8773,-3.8737,-3.8735,-3.8734,-3.8705,-3.8711,-3.8679,-3.8692,-3.8707,-3.8692,-3.8693,-3.8666,-3.8663,-3.8654,-3.8625,-3.8623,-3.8638,-3.8637,-3.8636,-3.8636,0,0,0,0,0,0,0,-3.8779,-3.8774,-3.8731,-3.8736,-3.8734,-3.8729,-3.8725,-3.8705,-3.8686,-3.8706,-3.8705,-3.8701,-3.8665,-3.8656,-3.8653,-3.8622,-3.8638,-3.8637,-3.8635,-3.8635,-3.8571,-3.857,0,0,0,0,0,0,-3.8784,-3.8776,-3.8732,-3.873,-3.8756,-3.8728,-3.8723,-3.8714,-3.8686,-3.8682,-3.87,-3.87,-3.866,-3.8656,-3.8652,-3.8626,-3.8636,-3.8634,-3.8633,-3.8571,-3.8571,-3.857,0,0,0,0,0,0,-3.8785,-3.878,-3.8734,-3.8753,-3.8746,-3.8726,-3.8716,-3.8713,-3.8704,-3.8682,-3.8678,-3.8695,-3.866,-3.8655,-3.8632,-3.8624,-3.8633,-3.8632,-3.8572,-3.8571,-3.857,-3.8576,0,0,0,0,0,0,-3.8787,-3.8781,-3.8776,-3.8753,-3.8746,-3.8717,-3.8716,-3.8712,-3.8701,-3.87,-3.8676,-3.8672,-3.866,-3.8635,-3.863,-3.8622,-3.863,-3.8572,-3.8571,-3.8571,-3.8577,-3.8576,-3.8575,0,0,0,0,0,-3.8789,-3.8779,-3.8775,-3.877,-3.8739,-3.8717,-3.8713,-3.87,-3.8701,-3.8694,-3.8678,-3.8673,-3.8626,-3.8633,-3.8627,-3.8618,-3.8573,-3.8572,-3.8571,-3.8577,-3.8576,-3.8575,0,0,0,0,0,0,-3.8801,-3.8776,-3.8772,-3.8754,-3.8738,-3.8715,-3.8706,-3.87,-3.8682,-3.8682,-3.8665,-3.866,-3.8638,-3.8626,-3.8634,-3.8597,-3.8599,-3.8597,-3.8606,-3.8605,-3.8604,-3.8606,-3.8628,0,0,0,0,0,-3.8802,-3.8788,-3.8766,-3.8753,-3.8745,-3.8727,-3.8717,-3.8708,-3.869,-3.8683,-3.8666,-3.8647,-3.8628,-3.8616,-3.8597,-3.8575,-3.8567,-3.8565,-3.8564,-3.8564,-3.8562,-3.8544,-3.8542,-3.8567,-3.8567,-3.8567,0,0,-3.8804,-3.8788,-3.878,-3.8755,-3.8741,-3.8724,-3.8721,-3.8705,-3.8691,-3.868,-3.8657,-3.8644,-3.8622,-3.8598,-3.8587,-3.8588,-3.8553,-3.8562,-3.8562,-3.856,-3.8543,-3.854,-3.8538,-3.8566,-3.8566,-3.8566,0,0,-3.8797,-3.8785,-3.8771,-3.8757,-3.8736,-3.8723,-3.872,-3.8697,-3.8687,-3.8665,-3.8654,-3.8637,-3.8605,-3.8588,-3.8576,-3.8558,-3.8551,-3.8553,-3.8548,-3.8531,-3.8529,-3.8527,-3.8518,-3.8515,-3.8551,-3.8551,-3.8551,0,-3.8801,-3.8778,-3.8765,-3.8748,-3.8735,-3.8724,-3.8707,-3.8694,-3.8667,-3.8657,-3.8658,-3.8615,-3.86,-3.857,-3.8565,-3.8556,-3.8549,-3.8555,-3.8531,-3.8529,-3.8527,-3.8517,-3.8514,-3.8551,-3.8551,-3.8551,-3.8551,0,-3.8782,-3.8765,-3.8756,-3.8731,-3.8717,-3.8701,-3.8682,-3.867,-3.8661,-3.8647,-3.8621,-3.8601,-3.8577,-3.8569,-3.8561,-3.8536,-3.8537,-3.8535,-3.8536,-3.8525,-3.8515,-3.8512,-3.8551,-3.8551,-3.8551,-3.8551,0,0,-3.8784,-3.8749,-3.8746,-3.8732,-3.8707,-3.8692,-3.8673,-3.8649,-3.8637,-3.8618,-3.8599,-3.857,-3.8567,-3.8552,-3.8541,-3.8527,-3.8509,-3.8526,-3.8525,-3.852,-3.8476,-3.8476,-3.8473,-3.8504,-3.8503,-3.8503,-3.8477,0,-3.8773,-3.8741,-3.8726,-3.8699,-3.8681,-3.8668,-3.865,-3.8631,-3.8616,-3.8597,-3.858,-3.8559,-3.8558,-3.8548,-3.8533,-3.8515,-3.8499,-3.8516,-3.8483,-3.8482,-3.8487,-3.8468,-3.847,-3.8447,-3.8473,-3.8473,-3.8472,0,-3.8756,-3.8737,-3.8708,-3.868,-3.8672,-3.8657,-3.8631,-3.8614,-3.859,-3.858,-3.8561,-3.855,-3.8526,-3.8529,-3.8493,-3.8505,-3.8489,-3.8478,-3.8476,-3.8471,-3.8476,-3.846,-3.8439,-3.8435,-3.8467,-3.8467,-3.8468,0,-3.8758,-3.8724,-3.8701,-3.869,-3.8658,-3.8647,-3.8633,-3.8609,-3.8594,-3.8571,-3.856,-3.8534,-3.8519,-3.8497,-3.8478,-3.8483,-3.8442,-3.8444,-3.843,-3.843,-3.8421,-3.8422,-3.8395,-3.8415,-3.8415,-3.8415,-3.8415,0,-3.8746,-3.8728,-3.8701,-3.8687,-3.8664,-3.8646,-3.8624,-3.8609,-3.8586,-3.8566,-3.8553,-3.8534,-3.851,-3.8487,-3.8471,-3.8441,-3.8435,-3.8423,-3.8419,-3.8424,-3.8425,-3.8413,-3.8413,-3.8414,-3.8415,-3.8415,-3.8415,0,-3.8744,-3.8726,-3.8699,-3.867,-3.8662,-3.8647,-3.862,-3.8604,-3.8587,-3.8562,-3.8555,-3.8528,-3.8499,-3.8478,-3.8441,-3.843,-3.8396,-3.8393,-3.8405,-3.8402,-3.8388,-3.8388,-3.835,-3.8343,-3.8371,-3.837,-3.837,0,-3.8737,-3.8723,-3.8691,-3.8677,-3.8663,-3.8641,-3.8625,-3.8605,-3.8588,-3.8556,-3.8543,-3.8513,-3.8489,-3.8442,-3.8418,-3.8388,-3.8382,-3.8371,-3.8378,-3.8381,-3.8378,-3.8378,-3.8375,-3.837,-3.837,-3.8369,-3.8369,0,-3.8726,-3.8716,-3.8695,-3.8668,-3.865,-3.8628,-3.8605,-3.8594,-3.8569,-3.855,-3.8521,-3.8501,-3.8462,-3.8431,-3.8398,-3.838,-3.8368,-3.8367,-3.8361,-3.8365,-3.8371,-3.8364,-3.84,-3.8368,-3.8368,-3.8368,-3.8368,-3.8369,-3.8719,-3.8704,-3.8679,-3.8654,-3.8634,-3.8613,-3.8595,-3.8575,-3.8551,-3.8518,-3.8507,-3.8475,-3.8445,-3.84,-3.8381,-3.8353,-3.8353,-3.8346,-3.8343,-3.8341,-3.834,-3.8377,-3.8347,-3.8347,-3.8347,-3.8347,-3.8347,0,-3.8705,-3.8687,-3.8664,-3.8633,-3.8611,-3.8604,-3.8577,-3.8559,-3.8532,-3.8506,-3.8481,-3.8445,-3.8413,-3.8385,-3.8351,-3.8334,-3.8328,-3.8326,-3.8326,-3.832,-3.8344,-3.8351,-3.8331,-3.8331,-3.8331,-3.8331,-3.8331,-3.8331,-3.8695,-3.8668,-3.8655,-3.8616,-3.8597,-3.8567,-3.8552,-3.853,-3.8509,-3.8469,-3.8443,-3.8425,-3.8396,-3.8359,-3.8328,-3.832,-3.8307,-3.8305,-3.8296,-3.8318,-3.832,-3.8321,-3.8328,-3.8303,-3.8303,-3.8274,-3.8274,-3.8274]}]]